Weather History for Nellis AFB, NV

Change the Weather History Date:

Wednesday, March 20, 2013

  Actual Average Record
Temperature  
Mean Temperature 68 °F -  
Max Temperature 77 °F 74 °F 91 °F (2004)
Min Temperature 59 °F 48 °F 35 °F (2006)
Cooling Degree Days 3    
Growing Degree Days 18 (Base 50)    
Moisture  
Dew Point 30 °F    
Average Humidity 24    
Maximum Humidity 33    
Minimum Humidity 18    
Precipitation  
Precipitation 0.00 in - - ()
Sea Level Pressure  
Sea Level Pressure 29.84 in    
Wind  
Wind Speed 9 mph (South)    
Max Wind Speed 21 mph    
Max Gust Speed -    
Visibility 10 miles    
Events      
Averages and records for this station are not official NWS values.
T = Trace of Precipitation, MM = Missing Value Source: NWS Daily Summary

Daily Weather History Graph

Daily Weather History Graph

Search for Another Location

Airport:

Trip Planner

Search our weather history database for the weather conditions in past years. The results will help you decide how hot, cold, wet, or windy it might be!

Date:

Astronomy

Mar. 20, 2013 Rise Set
Actual Time 6:43 AM PDT 6:52 PM PDT
Civil Twilight 6:17 AM PDT 7:17 PM PDT
Nautical Twilight 5:47 AM PDT 7:47 PM PDT
Astronomical Twilight 5:17 AM PDT 8:18 PM PDT
Moon 12:40 PM PDT (3/20) 2:16 AM PDT (3/20)
Length of Visible Light 13h 00m
Length of Day
12h 08m
First Quarter, 60% of the Moon is Illuminated
Mar 20
First Quarter
Mar 27
Full
Apr 2
Last Quarter
Apr 10
New
Apr 18
First Quarter

Hourly Weather History & Observations

Time (PDT) Temp. Dew Point Humidity Pressure Visibility Wind Dir Wind Speed Gust Speed Precip Events Conditions
12:58 AM 59.5 °F 26.1 °F 28% 29.95 in 10.0 mi NE 5.8 mph - N/A   Overcast
1:58 AM 59.5 °F 26.1 °F 28% 29.95 in 10.0 mi NNE 5.8 mph - N/A   Mostly Cloudy
2:58 AM 61.3 °F 25.5 °F 26% 29.91 in 10.0 mi NNE 3.5 mph - N/A   Overcast
3:58 AM 60.8 °F 27.3 °F 28% 29.88 in 10.0 mi North 3.5 mph - N/A   Scattered Clouds
4:58 AM 61.0 °F 26.4 °F 27% 29.86 in 10.0 mi North 4.6 mph - N/A   Mostly Cloudy
5:58 AM 63.3 °F 25.9 °F 24% 29.86 in 10.0 mi ENE 8.1 mph - N/A   Partly Cloudy
6:58 AM 63.9 °F 29.7 °F 28% 29.84 in 10.0 mi South 13.8 mph - N/A   Clear
7:58 AM 68.2 °F 34.3 °F 29% 29.86 in 10.0 mi South 18.4 mph - N/A   Clear
8:54 AM 69.8 °F 33.8 °F 27% 29.90 in 10.0 mi SSW 19.6 mph - N/A   Clear
9:54 AM 71.6 °F 35.6 °F 27% 29.91 in 10.0 mi South 16.1 mph - N/A   Clear
10:54 AM 73.4 °F 35.6 °F 25% 29.90 in 10.0 mi South 20.7 mph - N/A   Clear
11:58 AM 75.6 °F 31.3 °F 20% 29.86 in 10.0 mi SSW 12.7 mph - N/A   Clear
12:58 PM 75.2 °F 29.3 °F 18% 29.85 in 10.0 mi SSW 10.4 mph - N/A   Clear
1:58 PM 76.8 °F 30.7 °F 19% 29.82 in 10.0 mi South 10.4 mph - N/A   Partly Cloudy
2:27 PM 77.0 °F 30.2 °F 18% 29.84 in 10.0 mi SSW 13.8 mph - N/A   Partly Cloudy
2:58 PM 76.8 °F 29.7 °F 18% 29.80 in 10.0 mi South 12.7 mph - N/A   Clear
3:56 PM 77.0 °F 32.0 °F 19% 29.83 in 10.0 mi SW 16.1 mph - N/A   Clear
4:56 PM 75.2 °F 30.2 °F 19% 29.82 in 10.0 mi SSW 12.7 mph - N/A   Partly Cloudy
5:58 PM 75.2 °F 30.2 °F 19% 29.77 in 10.0 mi SSW 11.5 mph - N/A   Clear
6:58 PM 72.5 °F 30.9 °F 22% 29.75 in 10.0 mi South 6.9 mph - N/A   Clear
7:58 PM 70.7 °F 30.4 °F 22% 29.75 in 10.0 mi SSE 5.8 mph - N/A   Clear
8:58 PM 68.4 °F 30.2 °F 24% 29.78 in 10.0 mi South 8.1 mph - N/A   Partly Cloudy
9:58 PM 69.3 °F 31.5 °F 25% 29.77 in 10.0 mi South 9.2 mph - N/A   Clear
10:58 PM 64.8 °F 31.8 °F 29% 29.78 in 10.0 mi NNW 3.5 mph - N/A   Clear
11:58 PM 61.2 °F 31.5 °F 33% 29.74 in 10.0 mi ENE 10.4 mph - N/A   Clear